Overview Statistics Trail Chart Weather Telemetry Raw packets
 

This is the latest recevied weather packets stored in our database for station/object K2CAT. If no packets are shown the sender has not sent any weather packets the latest 10 day(s).

<< 71 72 73 74 75 76 77 >>
Time Temp. Humidity Pressure Rain* Wind** Luminosity Snow
1777206728 7.22° C 99% 1020.4 hPa 0 mm - 98 W/m² -
1777206423 7.22° C 99% 1020.3 hPa 0 mm - 103 W/m² -
1777206117 7.22° C 99% 1020.4 hPa 0 mm - 98 W/m² -
1777205814 7.22° C 99% 1020.4 hPa 0 mm - 109 W/m² -
1777205511 7.22° C 99% 1020.2 hPa 0 mm - 118 W/m² -
1777205207 7.22° C 99% 1020.1 hPa 0 mm - 111 W/m² -
1777204904 6.67° C 99% 1020.2 hPa 0 mm - 110 W/m² -
1777204599 6.67° C 99% 1020.1 hPa 0 mm - 75 W/m² -
1777204294 6.67° C 99% 1020.1 hPa 0 mm - 75 W/m² -
1777203991 6.11° C 99% 1020 hPa 0 mm - 76 W/m² -
1777203690 6.11° C 99% 1019.8 hPa 0 mm - 64 W/m² -
1777203386 6.11° C 99% 1019.8 hPa 0 mm - 50 W/m² -
1777203083 6.11° C 99% 1019.8 hPa 0 mm - 51 W/m² -
1777202781 6.11° C 99% 1019.8 hPa 0 mm - 59 W/m² -
1777202479 6.11° C 99% 1019.5 hPa 0 mm - 51 W/m² -
1777202179 6.11° C 99% 1019.4 hPa 0 mm - 48 W/m² -
1777201875 6.11° C 99% 1019.4 hPa 0 mm - 43 W/m² -
1777201572 6.11° C 99% 1019.4 hPa 0 mm - 40 W/m² -
1777201268 6.11° C 99% 1019.4 hPa 0 mm - 34 W/m² -
1777200963 6.11° C 99% 1019.4 hPa 0 mm - 30 W/m² -
1777200660 6.11° C 99% 1019.2 hPa 0 mm - 30 W/m² -
1777200359 6.11° C 99% 1019.2 hPa 0 mm - 25 W/m² -
1777200056 6.11° C 99% 1019.3 hPa 0 mm - 19 W/m² -
1777199751 5.56° C 99% 1019.1 hPa 0 mm - 16 W/m² -
1777199448 5.56° C 99% 1019.1 hPa 0 mm - 11 W/m² -

* Rain latest hour (hover to see other rain measurements)
** Current wind speed in m/s (hover to see current wind gust speed)